Location: Unspecified
(0.0000°N, 0.0000°E)
Time: 19:09:30
(UTC+00:00)

Injun 5 (Explorer 40) - Visible Passes

Search period start: 17 May 2026 00:00
Search period end: 27 May 2026 00:00
Orbit: 678 x 2476 km, 80.7° (Epoch: 17 May)

Date Brightness Start Highest point End Pass type
(mag) Time Alt. Az. Time Alt. Az. Time Alt. Az.
17 May 11.5 01:47:37 10° NE 01:56:46 21° E 02:06:01 10° SE visible
17 May 9.8 03:41:48 10° N 03:55:11 79° W 04:08:59 10° S visible
18 May 11.7 01:23:32 10° ENE 01:29:41 14° E 01:35:50 10° ESE visible
18 May 9.9 03:14:37 10° N 03:28:07 83° E 03:41:51 10° S visible
18 May 10.8 05:18:00 10° NW 05:26:42 20° W 05:35:32 10° SW visible
19 May 10.1 02:47:41 10° N 03:01:05 66° E 03:14:30 10° SSE visible
19 May 10.5 04:48:54 10° NW 04:59:36 28° W 05:10:23 10° SSW visible
20 May 10.4 02:21:02 10° NNE 02:34:02 51° E 02:46:52 10° SSE visible
20 May 10.2 04:20:30 10° NNW 04:32:31 38° W 04:44:31 10° SSW visible
21 May 10.8 01:54:42 10° NNE 02:06:57 39° E 02:18:55 10° SSE visible
21 May 10.0 03:52:31 10° NNW 04:05:28 50° W 04:18:11 10° SSW visible
22 May 11.1 01:28:48 10° NNE 01:39:51 29° E 01:50:33 10° SE visible
22 May 9.8 03:24:53 10° NNW 03:38:26 64° W 03:51:32 10° S visible
23 May 11.4 01:03:35 10° NE 01:12:43 21° E 01:19:39 14° ESE visible
23 May 9.7 02:57:30 10° N 03:11:24 81° W 03:17:00 45° S visible
23 May 10.9 05:04:05 10° WNW 05:09:41 13° W 05:14:23 11° WSW visible
24 May 11.6 00:39:48 10° ENE 00:45:31 13° E 00:49:18 12° ESE visible
24 May 9.8 02:30:22 10° N 02:44:20 81° E 02:46:52 67° SSE visible
24 May 10.7 04:33:38 10° NW 04:42:38 20° W 04:44:25 20° WSW visible
25 May 10.0 02:03:30 10° N 02:17:16 64° E 02:17:54 64° E visible
25 May 10.5 04:04:37 10° NW 04:15:31 29° W 04:15:31 29° W visible
26 May 10.4 01:36:54 10° NNE 01:49:26 49° ENE 01:49:26 49° ENE visible
26 May 10.3 03:36:16 10° NNW 03:47:05 38° W 03:47:05 38° W visible
